This demonstration page uses our WeatherBlox Daily Observations layout. Learn more.

38.88101, -77.10428

Hourly Observations for March 18, 2016

Temp ( °F °C ) Dew Point ( °F °C ) Humidity (%) Winds ( mph kmh ) Pressure ( in mb ) Visibility ( mi km ) Precip ( " mm )
12:52 am 00:52 Mostly Clear 56 13.3 27 -2.8 33 33 NW 13 20 29.91 1013 10 16.09344 0 0
1:52 am 01:52 Partly Cloudy 56 13.3 27 -2.8 33 33 WNW 8 13 29.91 1013 10 16.09344 0 0
2:52 am 02:52 Clear 54 12.2 28 -2.2 37 37 WNW 9 15 29.91 1013 10 16.09344 0 0
3:52 am 03:52 Clear 53 11.7 28 -2.2 38 38 SW 6 9 29.91 1013 10 16.09344 0 0
4:52 am 04:52 Clear 49 9.4 31 -0.6 50 50 SSW 7 11 29.91 1013 10 16.09344 0 0
5:52 am 05:52 Clear 51 10.6 30 -1.1 44 44 W 5 7 29.91 1013 10 16.09344 0 0
6:52 am 06:52 Mostly Clear 50 10 30 -1.1 46 46 SW 3 6 29.91 1013 10 16.09344 0 0
7:52 am 07:52 Mostly Sunny 51 10.6 30 -1.1 44 44 W 6 9 29.94 1014 10 16.09344 0 0
8:52 am 08:52 Mostly Sunny 55 12.8 30 -1.1 38 38 WSW 5 7 29.94 1014 10 16.09344 0 0
9:52 am 09:52 Mostly Sunny 57 13.9 30 -1.1 36 36 WSW 8 13 29.97 1015 10 16.09344 0 0
10:52 am 10:52 Mostly Sunny 60 15.6 29 -1.7 31 31 WSW 13 20 29.97 1015 10 16.09344 0 0
11:52 am 11:52 Mostly Cloudy 62 16.7 29 -1.7 29 29 WNW 14 22 29.94 1014 10 16.09344 0 0
12:52 pm 12:52 Partly Cloudy 63 17.2 27 -2.8 26 26 WNW 20 31 29.94 1014 10 16.09344 0 0
1:52 pm 13:52 Partly Cloudy 65 18.3 23 -5 20 20 WNW 18 30 29.91 1013 10 16.09344 0 0
2:52 pm 14:52 Partly Cloudy 65 18.3 23 -5 20 20 WNW 18 30 29.91 1013 10 16.09344 0 0
3:52 pm 15:52 Partly Cloudy 66 18.9 22 -5.6 19 19 W 13 20 29.88 1012 10 16.09344 0 0
4:52 pm 16:52 Partly Cloudy 66 18.9 21 -6.1 18 18 WNW 22 35 29.88 1012 10 16.09344 0 0
5:52 pm 17:52 Mostly Sunny 65 18.3 21 -6.1 19 19 WNW 14 22 29.88 1012 10 16.09344 0 0
6:52 pm 18:52 Mostly Sunny 64 17.8 20 -6.7 18 18 WNW 15 24 29.91 1013 10 16.09344 0 0
7:52 pm 19:52 Mostly Clear 61 16.1 21 -6.1 21 21 W 9 15 29.91 1013 10 16.09344 0 0
8:52 pm 20:52 Clear 60 15.6 22 -5.6 23 23 WNW 7 11 29.94 1014 10 16.09344 0 0
9:52 pm 21:52 Mostly Clear 59 15 22 -5.6 24 24 WSW 5 7 29.94 1014 10 16.09344 0 0
10:52 pm 22:52 Mostly Clear 58 14.4 23 -5 26 26 W 10 17 29.97 1015 10 16.09344 0 0
11:52 pm 23:52 Mostly Clear 57 14 21 -6 25 25 WNW 6 9 29.97 1015 10 16.09344 0 0

Powered by AerisWeather